Regional Weather Roundup
Issued by NWS Charleston, WV

Home | Current Version | Previous Version | Text Only | Print | Product List | Glossary Off
Versions: 1 2 3 4 5 6 7 8 9 10 11 12 13 14 15 16 17 18 19 20 21 22 23 24 25 26 27 28 29 30 31 32 33 34 35 36 37 38 39 40 41 42 43 44 45 46 47 48 49 50

000
ASUS41 KRLX 062210
RWRRLX
West Virginia Regional Weather Roundup
National Weather Service Charleston WV
600 PM EDT MON JUL 06 2015

Note: "fair" indicates few or no clouds below 12,000 feet with no
significant weather and/or obstructions to visibility.

WVZ003-062300-
Northern Panhandle of West Virginia

CITY           SKY/WX    TMP DP  RH WIND       PRES   REMARKS
WHEELING       PTSUNNY   77  67  71 W12G20    30.04S
$$

WVZ009-062300-
Northwest West Virginia

CITY           SKY/WX    TMP DP  RH WIND       PRES   REMARKS
PARKERSBURG    PTSUNNY   76  68  76 W6        30.07R
$$

WVZ006-062300-
Western West Virginia

CITY           SKY/WX    TMP DP  RH WIND       PRES   REMARKS
HUNTINGTON     MOSUNNY   81  64  56 W12       30.04F
$$

WVZ015-062300-
West Central West Virginia

CITY           SKY/WX    TMP DP  RH WIND       PRES   REMARKS
CHARLESTON     PTSUNNY   79  68  69 VRB3      30.06F
$$

WVZ022-031-062300-
North Central West Virginia

CITY           SKY/WX    TMP DP  RH WIND       PRES   REMARKS
CLARKSBURG     LGT RAIN  73  70  90 NE7       30.04F FOG
MORGANTOWN     PTSUNNY   76  69  79 S3        30.05S
$$

WVZ025-035-042-045-062300-
Southern West Virginia

CITY           SKY/WX    TMP DP  RH WIND       PRES   REMARKS
BECKLEY        CLOUDY    72  63  73 SW8       30.17S
LOGAN          PTSUNNY   75  70  83 SW5       30.08F
BLUEFIELD      PTSUNNY   73  63  70 W7        30.19F
LEWISBURG      PTSUNNY   77  63  61 W7        30.14S
$$

WVZ047-062300-
Northern Mountains of West Virginia

CITY           SKY/WX    TMP DP  RH WIND       PRES   REMARKS
ELKINS         CLOUDY    72  67  84 SE7       30.11S
$$

WVZ052-062300-
Eastern Panhandle of West Virginia

CITY           SKY/WX    TMP DP  RH WIND       PRES   REMARKS
MARTINSBURG    PTSUNNY   80  68  66 S9        30.03F
PETERSBURG     PTSUNNY   76  69  79 W3        30.06R THUNDER
$$



USA.gov is the U.S. government's official web portal to all federal, state and local government web resources and services.